Theta_e
315 315 317 317 316 319 321 324 325 325 326 327 327 326 328 329 331 332 333 333 334 334 333 330 327 329 328 327 327 332 331 331 332
314 314 315 315 315 317 320 322 323 325 325 325 325 326 327 328 330 331 333 331 333 334 333 332 330 326 329 328 327 332 332 332 330
312 312 313 314 315 315 318 321 322 322 322 323 324 325 325 327 329 330 331 332 333 333 333 331 330 331 327 326 327 329 331 331 330
311 311 312 312 314 315 317 318 319 319 319 322 323 324 324 325 328 330 331 331 332 331 332 331 331 328 330 328 329 330 326 329 330
308 310 312 312 313 315 314 315 315 315 317 320 321 322 322 324 326 329 329 331 332 332 331 331 330 328 327 329 328 329 329 328 330
306 310 312 312 310 310 311 309 308 310 312 316 319 320 319 322 326 328 328 330 331 331 331 331 330 330 329 328 328 328 328 329 329
305 309 309 308 307 307 306 300 300 306 310 312 314 315 318 321 320 324 327 328 329 329 329 328 328 328 328 328 329 330 330 327 328
301 303 303 300 299 301 302 299 298 298 302 307 310 314 314 316 315 318 321 324 326 326 326 326 325 325 324 325 325 326 327 328 328
300 299 299 297 297 297 297 297 297 297 302 307 310 311 312 313 315 313 316 317 320 322 323 323 323 322 321 321 322 323 324 325 324
301 298 297 296 296 295 295 296 296 297 298 301 305 306 305 306 310 312 312 313 314 318 319 320 320 319 318 317 317 318 319 320 321
301 297 297 296 295 295 295 295 296 297 298 299 300 300 300 300 301 303 306 306 308 312 314 314 315 315 315 314 314 314 314 315 316
299 298 297 297 295 295 295 295 295 296 298 299 296 294 294 294 294 295 296 299 302 306 308 310 311 312 313 314 313 312 311 312 312
299 298 298 299 297 295 295 295 294 295 295 295 294 294 293 293 292 292 291 291 292 297 302 305 307 308 310 310 311 310 310 310 310
298 299 299 299 298 295 294 294 294 294 294 294 294 294 294 294 293 292 292 291 290 290 291 299 302 304 306 308 309 309 309 309 309
298 298 299 299 298 295 294 294 294 294 294 293 293 293 293 293 294 294 293 291 290 290 290 290 293 299 301 303 306 307 308 308 307
298 298 297 297 298 296 295 294 294 294 294 294 294 294 294 293 293 293 293 292 291 290 290 290 290 291 295 299 301 304 306 307 307
298 298 297 297 297 297 295 295 295 296 297 297 295 293 294 294 292 293 293 292 291 291 290 290 290 290 291 294 297 300 303 305 306
297 298 297 297 297 298 298 297 297 297 297 298 297 293 293 293 293 292 293 292 292 291 291 290 289 289 289 290 293 297 300 303 305
296 297 298 298 297 297 297 297 297 296 295 294 295 295 296 291 292 293 291 292 292 291 290 290 289 289 289 289 290 295 297 299 302
296 295 296 297 297 297 297 297 297 296 296 296 293 293 294 294 292 291 290 292 292 291 290 289 289 288 288 288 288 290 294 297 299
Wind_Speed
11 11 11 12 12 13 14 15 15 14 12 13 13 12 17 20 20 20 17 14 15 17 19 20 19 17 15 17 10 9 7 10 10
11 11 12 13 13 14 16 16 14 15 15 14 14 13 13 17 23 20 19 15 15 15 14 13 12 13 13 11 10 10 9 8 7
12 12 12 13 15 15 16 16 15 15 16 15 15 15 15 16 25 25 20 16 18 18 13 11 9 7 6 5 7 9 7 6 6
12 12 12 13 15 16 16 16 15 16 15 16 16 17 14 15 23 26 23 16 17 16 14 12 13 10 7 5 3 5 7 5 5
11 13 13 13 14 15 16 16 15 16 16 18 19 17 15 20 21 25 21 21 19 18 17 14 14 11 10 11 8 2 4 4 5
16 14 14 14 15 15 15 16 16 15 17 17 17 16 19 22 25 24 21 24 22 24 25 24 25 23 20 16 15 8 2 3 4
17 17 17 16 16 17 18 20 20 18 18 18 18 20 19 24 27 29 24 24 27 25 24 24 26 28 29 29 28 28 15 6 2
16 16 16 17 17 19 19 20 21 23 22 22 22 23 22 20 27 28 26 26 26 27 26 25 23 24 25 26 28 29 28 24 14
18 19 19 19 20 22 22 22 22 23 24 24 25 23 22 18 18 26 22 25 25 24 24 25 25 24 22 25 24 25 26 26 22
18 19 20 21 20 22 23 23 24 24 25 24 23 21 20 18 16 16 18 17 22 21 21 25 23 23 23 23 23 23 23 23 24
18 21 22 22 21 22 24 25 27 27 27 27 25 24 23 23 23 21 21 24 24 23 23 21 21 22 21 22 23 22 22 23 22
19 21 21 21 21 22 24 26 28 30 30 30 28 27 26 26 26 25 25 26 28 26 26 24 24 23 22 23 23 24 24 25 25
18 20 20 19 19 21 23 25 28 30 31 30 28 27 26 26 26 26 27 28 27 26 25 26 26 25 24 23 24 24 24 26 26
17 19 20 19 20 22 24 26 28 30 29 28 26 25 25 25 24 25 25 26 28 29 27 25 25 26 25 25 24 24 25 26 26
16 18 19 19 21 23 23 26 26 27 29 29 27 24 23 21 21 21 22 23 25 27 28 28 25 24 26 25 24 24 25 26 26
16 17 19 20 21 23 22 24 25 26 26 27 23 21 19 20 19 17 18 21 22 25 26 28 28 26 25 25 25 24 24 25 25
16 16 18 19 22 22 22 24 25 19 9 6 6 2 6 14 16 15 16 17 18 21 24 26 26 27 26 25 26 25 24 23 24
14 16 17 18 18 21 20 18 17 12 7 8 3 3 2 3 6 14 14 14 16 17 19 22 24 24 25 25 26 26 24 24 23
13 14 16 16 17 18 17 16 13 12 14 10 3 4 8 3 1 4 10 11 13 14 17 20 23 23 23 24 24 25 25 24 23
14 13 14 15 15 15 14 15 13 13 10 8 9 9 9 7 4 2 3 9 10 11 13 17 22 24 23 24 24 22 24 23 23
Wind_Direction
76 76 75 70 71 78 79 85 84 105 106 106 98 87 74 61 70 63 66 71 75 87 95 102 88 90 104 95 100 82 88 105 96
79 79 80 75 74 81 85 88 93 86 82 109 101 95 87 71 68 61 62 63 76 88 100 94 91 86 91 102 102 90 93 94 91
80 81 85 81 78 84 89 85 93 85 83 103 104 97 94 84 71 59 55 65 74 74 86 79 89 75 65 95 122 117 111 110 103
82 84 87 89 84 87 90 87 85 81 93 104 109 106 100 96 69 60 54 64 75 74 70 75 64 61 66 53 102 130 134 138 124
86 93 90 93 93 92 90 91 90 87 104 104 104 110 108 85 69 62 55 60 73 67 66 80 60 59 58 51 44 126 136 177 164
104 89 92 93 92 93 95 93 99 112 111 108 106 108 95 88 71 61 62 63 70 70 72 71 62 62 62 53 57 57 39 201 203
121 121 108 103 100 97 96 98 97 105 107 105 105 97 100 91 71 58 64 63 64 67 69 66 61 58 55 51 51 50 49 80 22
104 111 112 108 105 106 108 107 99 94 98 102 102 96 94 103 76 59 59 59 57 58 61 61 59 53 47 43 42 43 45 53 45
111 109 109 107 107 107 106 103 100 97 94 98 98 98 94 95 87 66 67 59 53 56 58 57 52 49 39 38 38 39 38 38 36
120 114 113 109 109 106 104 102 99 97 96 94 94 92 86 87 94 88 69 64 53 55 57 57 53 53 47 44 39 38 33 30 31
126 123 118 113 109 108 104 101 98 94 95 90 86 84 83 80 79 78 80 63 57 55 53 52 52 52 52 48 45 40 35 30 28
131 130 125 118 116 113 109 104 100 96 93 90 86 84 83 81 79 76 75 75 66 64 64 63 61 58 54 52 49 43 37 33 31
139 137 132 127 125 122 118 113 105 99 94 91 86 85 82 79 77 74 71 67 65 67 63 62 60 58 55 50 46 43 40 37 34
147 143 139 137 133 128 122 117 111 105 99 94 90 85 81 78 76 72 69 67 64 62 62 67 61 57 55 52 47 43 41 39 37
151 148 145 148 142 138 130 121 116 110 105 98 90 85 82 79 74 71 70 69 66 64 62 61 60 57 53 49 45 42 39 36 36
156 148 151 154 153 148 144 135 127 119 110 98 89 82 78 77 74 74 73 70 69 64 61 59 56 54 56 46 42 41 38 35 32
165 158 152 157 158 156 155 151 144 144 143 127 116 86 72 70 69 73 74 71 69 64 59 56 53 50 50 44 38 37 36 33 31
173 170 164 158 162 165 168 171 169 167 185 185 147 109 168 125 73 70 75 75 71 62 56 52 48 44 42 41 36 30 31 29 27
179 176 175 171 168 167 168 173 177 165 142 120 133 160 139 148 142 95 74 82 75 64 56 48 42 38 35 34 33 27 26 25 24
186 182 177 175 172 171 172 174 171 165 170 159 136 106 107 125 135 160 127 87 79 73 61 47 38 33 27 27 26 23 20 21 20